Time,TemperatureF,DewpointF,PressureIn,WindDirection,WindDirectionDegrees,WindSpeedMPH,WindSpeedGustMPH,Humidity,HourlyPrecipIn,Conditions,Clouds,dailyrainin,SoftwareType,DateUTC
2013-08-02 07:32:00,69.0,18.0,-100.00,ESE,111,5.0,7.0,14,-99.99,,,-99.99,,2013-08-02 14:32:00,
2013-08-02 07:43:00,69.0,18.0,-100.00,ESE,117,5.0,6.0,14,-99.99,,,-99.99,,2013-08-02 14:43:00,
2013-08-02 07:53:00,69.0,19.0,-100.00,ESE,118,6.0,7.0,15,-99.99,,,-99.99,,2013-08-02 14:53:00,
2013-08-02 08:12:00,69.0,19.0,-100.00,ESE,112,5.0,7.0,15,-99.99,,,-99.99,,2013-08-02 15:12:00,
2013-08-02 08:32:00,72.0,15.0,-100.00,East,101,6.0,8.0,11,-99.99,,,-99.99,,2013-08-02 15:32:00,
2013-08-02 08:52:00,74.0,16.0,-100.00,NW,320,3.0,5.0,11,-99.99,,,-99.99,,2013-08-02 15:52:00,
2013-08-02 09:11:00,75.0,17.0,-100.00,NNW,336,2.0,5.0,11,-99.99,,,-99.99,,2013-08-02 16:11:00,
2013-08-02 09:42:00,76.0,18.0,-100.00,WNW,294,3.0,7.0,11,-99.99,,,-99.99,,2013-08-02 16:42:00,
2013-08-02 09:52:00,76.0,18.0,-100.00,WNW,292,4.0,5.0,11,-99.99,,,-99.99,,2013-08-02 16:52:00,
2013-08-02 10:12:00,77.0,18.0,-100.00,WNW,302,3.0,7.0,11,-99.99,,,-99.99,,2013-08-02 17:12:00,
2013-08-02 10:22:00,77.0,18.0,-100.00,WNW,301,4.0,7.0,11,-99.99,,,-99.99,,2013-08-02 17:22:00,
2013-08-02 10:34:00,77.0,20.0,-100.00,NW,304,3.0,6.0,12,-99.99,,,-99.99,,2013-08-02 17:34:00,
2013-08-02 10:43:00,78.0,21.0,-100.00,NW,304,4.0,7.0,12,-99.99,,,-99.99,,2013-08-02 17:43:00,
2013-08-02 10:52:00,78.0,21.0,-100.00,NW,304,4.0,7.0,12,-99.99,,,-99.99,,2013-08-02 17:52:00,
2013-08-02 11:02:00,77.0,26.0,-100.00,NW,305,6.0,10.0,15,-99.99,,,-99.99,,2013-08-02 18:02:00,
2013-08-02 11:32:00,78.0,32.0,-100.00,West,267,4.0,8.0,19,-99.99,,,-99.99,,2013-08-02 18:32:00,
2013-08-02 11:52:00,78.0,37.0,-100.00,WSW,248,4.0,8.0,23,-99.99,,,-99.99,,2013-08-02 18:52:00,
2013-08-02 12:02:00,78.0,37.0,-100.00,WNW,285,5.0,9.0,23,-99.99,,,-99.99,,2013-08-02 19:02:00,
2013-08-02 12:11:00,78.0,39.0,-100.00,West,271,5.0,9.0,25,-99.99,,,-99.99,,2013-08-02 19:11:00,
2013-08-02 12:43:00,78.0,44.0,-100.00,WNW,285,6.0,12.0,30,-99.99,,,-99.99,,2013-08-02 19:43:00,
2013-08-02 12:52:00,78.0,44.0,-100.00,WNW,285,6.0,12.0,30,-99.99,,,-99.99,,2013-08-02 19:52:00,
2013-08-02 13:12:00,78.0,45.0,-100.00,West,270,6.0,11.0,31,-99.99,,,-99.99,,2013-08-02 20:12:00,
2013-08-02 13:22:00,78.0,44.0,-100.00,West,263,6.0,12.0,30,-99.99,,,-99.99,,2013-08-02 20:22:00,
2013-08-02 13:32:00,78.0,44.0,-100.00,West,274,6.0,12.0,30,-99.99,,,-99.99,,2013-08-02 20:32:00,
2013-08-02 13:43:00,78.0,45.0,-100.00,West,265,7.0,13.0,31,-99.99,,,-99.99,,2013-08-02 20:43:00,
2013-08-02 13:52:00,79.0,46.0,-100.00,West,271,6.0,11.0,31,-99.99,,,-99.99,,2013-08-02 20:52:00,
2013-08-02 14:11:00,78.0,45.0,-100.00,WSW,258,7.0,11.0,31,-99.99,,,-99.99,,2013-08-02 21:11:00,
2013-08-02 14:42:00,79.0,45.0,-100.00,West,273,6.0,12.0,30,-99.99,,,-99.99,,2013-08-02 21:42:00,
2013-08-02 14:53:00,79.0,45.0,-100.00,West,273,6.0,12.0,30,-99.99,,,-99.99,,2013-08-02 21:53:00,
2013-08-02 15:32:00,78.0,46.0,-100.00,West,273,6.0,14.0,32,-99.99,,,-99.99,,2013-08-02 22:32:00,
2013-08-02 15:52:00,78.0,47.0,-100.00,West,268,6.0,12.0,33,-99.99,,,-99.99,,2013-08-02 22:52:00,
2013-08-02 16:02:00,78.0,47.0,-100.00,West,278,6.0,10.0,33,-99.99,,,-99.99,,2013-08-02 23:02:00,
2013-08-02 16:21:00,77.0,47.0,-100.00,West,261,6.0,10.0,35,-99.99,,,-99.99,,2013-08-02 23:21:00,
2013-08-02 16:32:00,77.0,47.0,-100.00,West,267,5.0,10.0,35,-99.99,,,-99.99,,2013-08-02 23:32:00,
2013-08-02 16:43:00,76.0,46.0,-100.00,West,278,5.0,10.0,35,-99.99,,,-99.99,,2013-08-02 23:43:00,
2013-08-02 16:53:00,75.0,46.0,-100.00,WNW,298,6.0,10.0,36,-99.99,,,-99.99,,2013-08-02 23:53:00,
2013-08-02 17:02:00,75.0,46.0,-100.00,WNW,298,6.0,10.0,36,-99.99,,,-99.99,,2013-08-03 00:02:00,
2013-08-02 17:11:00,76.0,46.0,-100.00,WSW,257,4.0,8.0,35,-99.99,,,-99.99,,2013-08-03 00:11:00,
2013-08-02 17:22:00,75.0,47.0,-100.00,West,265,6.0,11.0,37,-99.99,,,-99.99,,2013-08-03 00:22:00,
2013-08-02 17:32:00,75.0,46.0,-100.00,WNW,284,5.0,9.0,36,-99.99,,,-99.99,,2013-08-03 00:32:00,
2013-08-02 17:43:00,74.0,45.0,-100.00,WNW,284,5.0,10.0,36,-99.99,,,-99.99,,2013-08-03 00:43:00,
2013-08-02 17:52:00,74.0,46.0,-100.00,West,274,5.0,9.0,37,-99.99,,,-99.99,,2013-08-03 00:52:00,
2013-08-02 18:02:00,74.0,46.0,-100.00,West,274,5.0,9.0,37,-99.99,,,-99.99,,2013-08-03 01:02:00,
2013-08-02 18:12:00,74.0,47.0,-100.00,WNW,289,5.0,10.0,38,-99.99,,,-99.99,,2013-08-03 01:12:00,
2013-08-02 18:22:00,74.0,47.0,-100.00,WNW,289,5.0,8.0,39,-99.99,,,-99.99,,2013-08-03 01:22:00,
2013-08-02 18:32:00,74.0,48.0,-100.00,WNW,293,4.0,8.0,40,-99.99,,,-99.99,,2013-08-03 01:32:00,
2013-08-02 18:42:00,73.0,49.0,-100.00,WNW,288,4.0,7.0,42,-99.99,,,-99.99,,2013-08-03 01:42:00,
2013-08-02 18:52:00,73.0,49.0,-100.00,WNW,288,4.0,7.0,42,-99.99,,,-99.99,,2013-08-03 01:52:00,
2013-08-02 19:02:00,73.0,49.0,-100.00,West,270,3.0,7.0,43,-99.99,,,-99.99,,2013-08-03 02:02:00,
2013-08-02 19:12:00,73.0,49.0,-100.00,WNW,293,3.0,6.0,43,-99.99,,,-99.99,,2013-08-03 02:12:00,
2013-08-02 19:22:00,72.0,49.0,-100.00,WNW,291,3.0,5.0,45,-99.99,,,-99.99,,2013-08-03 02:22:00,
2013-08-02 19:32:00,71.0,50.0,-100.00,WNW,289,3.0,5.0,47,-99.99,,,-99.99,,2013-08-03 02:32:00,
2013-08-02 19:43:00,69.0,50.0,-100.00,WNW,295,2.0,3.0,50,-99.99,,,-99.99,,2013-08-03 02:43:00,
2013-08-02 19:52:00,69.0,50.0,-100.00,WNW,295,2.0,3.0,50,-99.99,,,-99.99,,2013-08-03 02:52:00,
2013-08-02 20:02:00,69.0,51.0,-100.00,WNW,289,1.0,2.0,52,-99.99,,,-99.99,,2013-08-03 03:02:00,
2013-08-02 20:22:00,67.0,50.0,-100.00,SE,124,3.0,4.0,54,-99.99,,,-99.99,,2013-08-03 03:22:00,
2013-08-02 20:32:00,67.0,48.0,-100.00,ESE,111,2.0,6.0,50,-99.99,,,-99.99,,2013-08-03 03:32:00,